Location: Newark
(38.1091°N, 103.8677°W)
Time: 02:07:11
(UTC+00:00)

ISS - Visible Passes

Search period start: 21 October 2019 00:00
Search period end: 31 October 2019 00:00
Orbit: 411 x 421 km, 51.6° (Epoch: 21 October)

Date Brightness Start Highest point End Pass type
(mag) Time Alt. Az. Time Alt. Az. Time Alt. Az.
22 Oct -1.4 12:32:23 10° S 12:35:15 26° SE 12:38:07 10° ENE visible
23 Oct -0.8 11:44:53 10° SSE 11:46:50 15° SE 11:48:47 10° E visible
24 Oct -3.7 12:31:17 10° SW 12:34:39 85° SE 12:38:01 10° NE visible
25 Oct -2.7 11:44:19 22° SSW 11:46:06 44° SE 11:49:19 10° ENE visible
26 Oct -1.2 10:58:30 21° ESE 10:58:30 21° ESE 11:00:23 10° ENE visible
26 Oct -2.9 12:31:26 12° W 12:34:13 34° NNW 12:37:20 10° NE visible
27 Oct -3.7 11:45:25 57° NW 11:45:31 58° NW 11:48:51 10° NE visible
28 Oct -1.1 10:59:12 19° NE 10:59:12 19° NE 11:00:15 10° NE visible
28 Oct -1.9 12:32:07 12° WNW 12:33:57 17° NNW 12:36:18 10° NNE visible
29 Oct -2.1 11:45:47 23° N 11:45:47 23° N 11:47:57 10° NNE visible
30 Oct -0.6 10:59:20 11° NE 10:59:20 11° NE 10:59:31 10° NE visible
30 Oct -1.3 12:32:54 10° NNW 12:33:51 11° NNW 12:34:48 10° N visible
